Temp
38 38 38 38 37 37 37 37 37 37 37 36 36 36 36 36 37 37 38 38 37 37 37 38 38 38 39 39 39 39 39 39 39 39 39 39 38 38 38 39 39 39 39 39 40 40 40 41 40 40 40 40 40 40 40 41 41 41 41 41 41 41 41 40 40 40 41 41 41
37 37 37 37 37 36 36 36 36 36 36 36 35 36 36 36 36 36 37 37 37 37 37 37 38 38 38 38 38 38 38 38 38 38 38 38 38 38 38 38 38 38 38 39 39 39 39 40 39 39 39 40 40 40 40 41 41 41 40 41 41 41 40 40 40 40 41 41 41
36 36 36 36 35 35 35 34 34 34 34 34 35 35 36 36 36 36 36 36 36 36 37 37 37 37 37 37 38 38 37 37 37 37 37 37 37 37 37 37 37 38 38 38 38 38 38 39 39 39 39 39 39 39 39 40 40 40 40 40 40 40 40 40 40 40 41 41 41
36 35 35 35 34 34 34 33 33 33 33 34 34 35 35 35 35 35 35 36 36 36 36 36 36 36 37 37 37 37 37 37 36 36 35 35 36 36 36 36 36 37 37 38 38 38 38 38 39 39 38 38 38 38 39 39 40 40 40 40 40 40 39 39 40 40 40 40 41
35 35 34 34 34 34 33 33 33 33 33 33 34 34 34 34 35 35 35 35 35 35 35 36 36 36 36 37 36 36 36 36 36 35 35 35 35 35 35 35 35 36 37 37 37 37 38 38 38 38 38 38 38 38 39 39 39 39 39 40 40 39 39 39 40 40 40 40 40
34 34 34 34 34 33 33 33 33 32 33 33 33 33 33 34 34 34 34 34 34 35 35 36 36 36 36 36 36 35 35 35 35 34 34 34 34 34 35 35 35 36 36 37 37 37 37 37 37 37 37 38 37 38 39 40 39 39 38 39 39 39 39 39 39 39 40 40 40
34 33 33 33 33 33 32 32 32 32 32 32 32 32 33 33 33 33 33 34 34 34 35 35 35 35 35 35 34 34 34 34 33 33 33 33 33 33 34 34 35 35 36 36 36 36 37 37 36 36 37 38 38 38 39 39 39 38 37 37 38 39 39 39 39 39 39 39 39
33 33 33 33 32 32 32 32 32 32 32 32 32 32 32 33 33 33 33 33 33 34 34 35 35 34 34 34 34 33 33 33 32 32 32 32 33 33 34 34 34 35 35 36 36 36 36 36 36 36 36 37 37 38 38 38 37 37 36 36 38 38 39 39 39 39 39 39 39
33 33 32 32 32 32 31 31 31 31 31 31 32 32 32 33 33 33 33 33 33 34 34 34 34 34 34 33 33 32 32 31 31 32 32 32 32 33 33 34 34 34 35 35 35 35 35 35 35 36 36 37 37 37 37 37 36 36 36 36 37 38 39 39 39 38 38 38 38
32 32 32 32 31 31 31 31 31 31 31 31 32 32 32 33 32 32 32 32 33 33 33 34 34 33 33 33 32 31 31 31 31 31 31 31 32 32 33 33 33 34 34 35 35 35 35 35 35 36 37 37 37 37 37 36 36 35 36 36 37 38 38 39 39 38 38 38 38
31 31 31 31 31 31 30 30 30 31 31 31 31 32 32 32 32 32 32 32 32 33 33 33 33 33 32 32 31 31 31 31 30 30 30 31 31 32 32 32 33 33 33 34 34 34 34 34 35 35 36 36 36 36 36 36 36 35 35 36 37 37 38 38 38 38 38 37 37
31 31 31 30 30 30 30 30 30 30 31 31 31 31 31 31 31 32 32 32 32 32 32 33 33 32 32 31 31 31 31 30 30 30 30 30 31 31 32 32 32 33 33 33 34 34 34 34 34 34 35 35 35 35 35 35 35 35 35 36 37 37 37 37 38 38 38 37 37
31 30 30 30 30 29 29 29 29 30 30 30 30 31 31 31 31 31 31 31 31 31 32 32 32 32 31 30 30 30 30 30 30 30 30 31 31 31 31 32 32 32 32 33 33 33 33 33 33 33 34 34 35 35 35 35 34 34 35 36 37 37 36 36 37 37 37 37 37
30 30 29 29 29 29 28 28 29 29 30 30 30 30 30 31 31 31 31 31 31 31 31 32 32 31 31 30 30 30 30 30 30 30 30 31 31 31 31 31 31 31 32 32 33 33 32 32 33 33 33 33 34 35 35 35 35 35 35 37 36 36 36 36 36 37 37 36 36
30 29 29 28 28 28 28 28 28 29 29 29 30 30 30 30 31 31 31 31 31 31 31 31 31 31 31 31 30 30 30 30 30 30 30 30 31 31 31 31 31 31 31 31 32 32 32 32 32 32 33 33 33 34 35 35 35 35 36 37 36 36 36 36 36 36 36 36 36
29 29 28 28 28 27 27 27 28 28 29 29 29 29 29 30 30 30 31 30 31 31 31 30 30 30 30 30 30 30 30 30 30 30 30 30 30 30 31 31 31 31 31 31 31 31 31 32 32 32 32 32 33 34 34 34 34 35 36 37 36 36 35 36 36 36 36 36 36
28 28 28 27 27 27 27 27 27 28 28 28 28 29 29 29 30 30 30 31 31 30 30 29 29 29 29 29 30 29 29 29 29 29 29 30 30 30 30 31 31 31 31 31 31 31 31 32 32 32 32 32 33 33 33 33 34 35 37 37 36 36 36 36 36 36 36 36 36
27 27 27 27 26 26 26 26 26 27 27 27 28 28 28 29 29 29 30 31 30 30 29 29 29 29 29 28 28 29 29 28 29 29 29 29 30 30 30 30 31 31 31 31 31 31 31 31 32 32 32 32 32 33 33 33 35 36 37 37 36 36 36 36 36 36 36 36 36
27 27 26 26 26 26 26 26 26 26 27 27 27 28 28 28 29 29 29 30 30 30 29 29 29 29 29 28 28 29 29 29 29 29 29 29 30 30 30 30 31 31 31 31 31 31 31 31 32 32 32 32 33 33 33 34 36 37 37 37 36 36 36 36 36 36 36 36 36
26 26 26 26 26 26 26 26 26 26 27 27 27 27 28 28 29 29 29 29 30 30 29 28 28 28 28 28 28 28 29 29 29 29 29 30 30 30 30 31 31 31 31 31 31 31 31 31 31 32 32 32 32 33 34 35 36 37 37 37 36 36 36 36 36 36 36 36 36
26 26 26 26 26 26 26 26 26 26 27 27 27 27 28 28 29 29 29 29 30 29 29 28 28 28 28 28 28 28 29 30 30 30 30 30 30 30 31 31 31 31 31 31 31 31 31 31 31 32 32 32 33 33 35 36 36 37 37 37 36 35 35 35 36 36 36 36 35
26 26 26 27 27 27 27 27 27 27 27 27 27 28 28 28 28 29 29 29 29 29 29 28 28 28 28 28 28 29 29 30 30 30 30 30 30 31 31 31 31 31 31 31 31 31 31 31 32 33 33 33 34 35 36 36 36 36 37 37 36 35 35 35 35 35 35 35 35
26 26 26 26 27 27 27 27 27 27 27 27 27 28 28 28 28 29 29 29 29 29 29 28 28 28 28 29 29 29 29 30 30 30 30 30 30 31 31 31 31 32 32 31 31 31 31 32 33 33 34 35 35 35 36 36 36 36 36 36 36 35 35 34 34 34 35 35 35
25 26 26 26 26 26 26 26 26 26 26 27 27 27 28 28 28 28 29 29 28 28 28 28 28 29 29 29 30 30 30 30 30 30 30 30 30 31 31 31 32 32 32 32 32 33 34 33 33 34 35 36 36 36 36 36 37 37 36 36 36 35 34 34 34 34 34 35 35
25 25 25 26 26 26 26 26 26 26 26 26 27 27 28 28 28 28 28 28 28 28 28 28 28 29 29 30 30 30 30 30 29 30 30 30 30 31 31 32 32 32 33 34 36 37 38 37 36 35 35 37 37 37 37 38 38 38 37 36 36 36 35 35 35 35 35 35 35
25 25 25 25 25 25 25 25 25 26 26 27 27 27 27 28 28 28 28 28 28 28 28 28 28 29 30 30 30 30 30 30 30 30 30 30 30 31 31 32 32 32 33 35 37 39 39 39 39 38 37 37 38 38 38 38 38 38 38 38 37 36 36 35 35 35 35 35 35
24 24 24 25 25 24 24 25 25 26 26 27 27 27 27 28 28 28 28 28 28 28 28 28 29 30 31 30 30 30 30 30 30 30 30 30 30 30 31 32 32 31 32 36 38 39 39 39 40 39 39 37 37 38 38 38 38 38 38 38 38 37 36 35 35 35 35 34 35
24 24 24 24 24 24 24 25 25 26 26 26 27 27 27 27 28 28 28 28 28 28 29 29 30 30 30 30 30 29 29 30 30 30 30 30 31 31 32 32 31 32 34 37 39 39 39 39 40 40 39 38 37 37 37 38 38 38 38 38 38 37 36 35 35 35 35 34 35
24 24 24 24 24 24 25 25 25 26 26 27 27 27 27 27 27 27 28 28 28 29 29 29 30 30 30 29 29 29 30 30 30 31 31 31 31 32 32 32 32 34 35 38 39 39 39 39 39 40 40 40 38 37 37 38 38 38 38 38 37 36 35 35 34 35 35 35 35
24 24 24 24 24 24 25 25 26 26 27 27 27 27 27 26 26 27 27 28 28 29 29 30 30 29 29 29 29 29 30 30 30 30 30 30 31 31 32 33 32 33 35 38 39 39 39 39 40 40 40 40 38 37 37 37 38 38 38 38 37 36 35 34 34 34 35 35 35
24 24 24 24 24 25 25 26 26 26 27 27 26 26 26 26 26 26 27 27 28 29 30 30 29 29 29 29 29 29 30 30 30 30 30 30 31 31 32 32 32 33 35 38 38 39 40 40 40 40 40 40 38 37 37 37 38 38 38 37 36 35 35 34 34 34 34 35 35
24 25 25 25 25 25 25 26 26 26 26 26 26 26 25 26 26 27 27 28 28 28 29 29 28 28 29 29 29 29 29 29 30 30 30 30 31 31 32 32 32 33 35 37 38 39 39 40 39 40 40 40 38 37 37 37 38 38 38 37 36 35 34 34 34 34 35 35 36
25 25 25 25 25 25 26 26 26 26 26 26 26 25 25 26 26 26 27 27 27 27 27 27 27 28 28 28 28 29 29 29 29 30 30 31 31 32 32 32 32 34 35 37 38 39 39 39 39 39 40 40 38 37 37 37 38 38 37 37 36 35 34 34 34 34 34 36 36
25 25 25 25 25 25 26 26 26 26 26 25 25 25 25 25 26 26 26 27 27 27 27 27 27 28 28 28 28 28 28 29 29 30 30 31 31 32 32 32 32 33 36 37 38 38 39 39 39 39 39 39 38 37 36 37 38 38 37 36 35 35 35 34 34 34 34 36 37
26 26 25 25 25 25 26 26 26 26 26 25 25 26 26 26 26 26 26 27 27 27 27 27 27 28 28 28 28 28 28 28 29 30 30 31 31 31 31 32 32 34 36 36 37 38 38 39 39 39 39 38 37 36 36 36 37 37 37 36 35 35 35 35 34 34 34 35 37
26 26 26 26 26 26 26 26 26 26 26 25 25 25 26 26 26 26 27 27 27 26 26 26 27 27 27 27 28 28 28 28 29 29 30 31 31 31 31 31 32 34 35 36 37 37 38 38 39 38 38 37 36 36 36 35 36 36 36 35 35 34 35 35 35 34 34 34 35
27 26 26 26 26 26 26 26 26 26 25 25 25 25 26 26 26 27 27 27 26 26 25 26 26 26 26 26 27 27 28 28 29 29 30 31 31 31 31 31 32 33 34 35 36 37 38 38 38 38 38 36 36 35 35 35 35 36 36 35 34 34 35 35 36 35 33 33 35
27 27 26 26 26 26 26 26 25 25 25 25 25 26 26 26 26 26 27 27 26 25 25 25 25 25 26 26 27 27 28 28 29 29 30 30 31 31 31 31 31 32 33 35 36 37 37 38 38 38 38 36 35 35 35 35 35 35 35 35 34 35 35 35 35 35 34 34 36
27 27 27 26 26 26 26 26 25 25 25 25 26 26 26 26 26 27 27 27 26 26 25 25 25 26 26 27 27 27 27 28 29 29 30 30 31 31 31 31 31 32 33 35 36 36 37 37 38 38 38 36 35 34 34 35 34 34 34 34 34 34 35 35 35 35 34 34 37
27 27 27 26 26 26 26 26 26 26 26 26 26 26 26 26 27 27 28 28 27 27 26 26 26 26 27 27 27 27 27 28 28 29 30 30 31 32 32 31 31 32 33 35 35 36 36 37 38 38 38 36 35 34 34 34 34 33 33 33 34 34 34 34 34 34 34 34 36
27 27 27 26 26 26 26 26 26 26 26 26 26 26 27 27 28 28 28 28 28 27 27 26 27 27 27 27 27 26 26 27 28 29 30 30 31 32 32 32 32 32 33 34 35 35 36 37 37 38 38 36 34 34 34 34 33 32 32 32 33 33 33 33 33 33 34 34 34
MSLP
1031.34 1031.22 1031.06 1030.90 1030.74 1030.54 1030.34 1030.14 1029.98 1029.82 1029.66 1029.46 1029.26 1029.06 1028.82 1028.50 1028.18 1027.86 1027.62 1027.46 1027.26 1027.06 1026.82 1026.62 1026.38 1026.18 1025.98 1025.82 1025.62 1025.42 1025.22 1024.98 1024.82 1024.62 1024.46 1024.26 1024.10 1023.90 1023.66 1023.38 1023.10 1022.86 1022.62 1022.38 1022.10 1021.82 1021.50 1021.18 1020.94 1020.66 1020.38 1020.18 1019.90 1019.70 1019.42 1019.22 1018.98 1018.66 1018.34 1018.10 1017.82 1017.62 1017.38 1017.18 1016.94 1016.66 1016.34 1016.10 1015.90
1031.50 1031.38 1031.26 1031.10 1030.98 1030.82 1030.62 1030.38 1030.22 1030.10 1029.98 1029.82 1029.58 1029.30 1029.02 1028.70 1028.38 1028.10 1027.90 1027.70 1027.54 1027.38 1027.10 1026.82 1026.54 1026.34 1026.10 1025.90 1025.70 1025.54 1025.30 1025.06 1024.86 1024.70 1024.50 1024.30 1024.14 1023.98 1023.78 1023.54 1023.26 1022.98 1022.70 1022.42 1022.14 1021.86 1021.54 1021.26 1020.98 1020.70 1020.38 1020.14 1019.86 1019.62 1019.38 1019.14 1018.90 1018.62 1018.26 1017.98 1017.82 1017.58 1017.38 1017.10 1016.82 1016.54 1016.26 1015.98 1015.74
1031.70 1031.58 1031.46 1031.30 1031.14 1031.02 1030.86 1030.70 1030.50 1030.38 1030.26 1030.06 1029.82 1029.54 1029.26 1028.98 1028.66 1028.38 1028.18 1027.98 1027.82 1027.62 1027.34 1027.02 1026.74 1026.50 1026.26 1025.98 1025.82 1025.62 1025.42 1025.22 1024.98 1024.78 1024.54 1024.38 1024.18 1024.02 1023.82 1023.66 1023.38 1023.06 1022.78 1022.50 1022.22 1021.94 1021.66 1021.34 1021.06 1020.74 1020.42 1020.10 1019.82 1019.58 1019.26 1019.02 1018.82 1018.54 1018.26 1017.98 1017.78 1017.58 1017.38 1017.10 1016.78 1016.46 1016.14 1015.86 1015.62
1031.86 1031.74 1031.62 1031.46 1031.34 1031.22 1031.10 1030.94 1030.78 1030.62 1030.42 1030.22 1029.98 1029.70 1029.42 1029.18 1028.94 1028.70 1028.42 1028.22 1027.98 1027.74 1027.46 1027.18 1026.90 1026.62 1026.34 1026.10 1025.86 1025.70 1025.50 1025.30 1025.10 1024.82 1024.62 1024.42 1024.26 1024.10 1023.94 1023.70 1023.42 1023.10 1022.82 1022.54 1022.26 1021.98 1021.70 1021.38 1021.10 1020.74 1020.42 1020.14 1019.86 1019.54 1019.26 1018.98 1018.74 1018.50 1018.26 1017.98 1017.78 1017.54 1017.34 1017.10 1016.78 1016.46 1016.14 1015.82 1015.58
1031.98 1031.90 1031.78 1031.66 1031.54 1031.38 1031.26 1031.14 1030.98 1030.82 1030.58 1030.34 1030.06 1029.78 1029.54 1029.30 1029.10 1028.82 1028.58 1028.30 1028.06 1027.82 1027.58 1027.30 1027.02 1026.74 1026.46 1026.22 1025.98 1025.74 1025.54 1025.38 1025.18 1024.98 1024.74 1024.50 1024.30 1024.14 1023.98 1023.70 1023.46 1023.18 1022.86 1022.54 1022.30 1021.98 1021.70 1021.38 1021.10 1020.74 1020.42 1020.14 1019.82 1019.50 1019.22 1018.94 1018.66 1018.42 1018.18 1017.98 1017.78 1017.54 1017.30 1017.02 1016.74 1016.46 1016.14 1015.82 1015.54
1032.10 1032.02 1031.94 1031.82 1031.70 1031.58 1031.46 1031.34 1031.14 1030.98 1030.74 1030.46 1030.18 1029.86 1029.62 1029.38 1029.14 1028.90 1028.70 1028.42 1028.18 1027.90 1027.66 1027.34 1027.06 1026.78 1026.54 1026.26 1026.06 1025.82 1025.58 1025.38 1025.26 1025.06 1024.82 1024.58 1024.38 1024.18 1023.98 1023.70 1023.46 1023.18 1022.86 1022.54 1022.26 1022.02 1021.70 1021.38 1021.06 1020.70 1020.38 1020.10 1019.78 1019.46 1019.18 1018.94 1018.66 1018.38 1018.18 1017.98 1017.74 1017.50 1017.22 1016.94 1016.66 1016.42 1016.10 1015.82 1015.50
1032.26 1032.14 1032.02 1031.94 1031.82 1031.70 1031.54 1031.46 1031.26 1031.06 1030.82 1030.54 1030.26 1029.98 1029.70 1029.50 1029.26 1029.02 1028.78 1028.54 1028.26 1027.98 1027.66 1027.38 1027.10 1026.82 1026.58 1026.34 1026.10 1025.86 1025.70 1025.54 1025.34 1025.14 1024.98 1024.70 1024.46 1024.26 1023.98 1023.70 1023.38 1023.10 1022.82 1022.54 1022.26 1021.98 1021.70 1021.38 1021.10 1020.70 1020.38 1020.02 1019.70 1019.38 1019.10 1018.94 1018.66 1018.46 1018.22 1017.94 1017.70 1017.38 1017.10 1016.82 1016.58 1016.38 1016.10 1015.78 1015.42
1032.38 1032.26 1032.18 1032.06 1031.94 1031.82 1031.66 1031.54 1031.34 1031.10 1030.82 1030.58 1030.26 1030.02 1029.78 1029.54 1029.26 1029.06 1028.82 1028.54 1028.26 1028.02 1027.70 1027.42 1027.10 1026.90 1026.66 1026.42 1026.18 1025.98 1025.82 1025.62 1025.38 1025.22 1024.98 1024.78 1024.50 1024.18 1023.90 1023.62 1023.30 1023.06 1022.82 1022.54 1022.26 1021.98 1021.70 1021.38 1021.10 1020.70 1020.34 1019.98 1019.70 1019.38 1019.10 1018.94 1018.70 1018.46 1018.18 1017.86 1017.54 1017.26 1016.98 1016.74 1016.54 1016.34 1016.06 1015.74 1015.38
1032.42 1032.34 1032.22 1032.10 1031.98 1031.86 1031.74 1031.58 1031.38 1031.10 1030.82 1030.54 1030.26 1030.02 1029.82 1029.58 1029.34 1029.10 1028.82 1028.62 1028.38 1028.10 1027.78 1027.46 1027.18 1026.94 1026.70 1026.54 1026.30 1026.10 1025.94 1025.70 1025.46 1025.22 1024.98 1024.74 1024.46 1024.14 1023.82 1023.54 1023.26 1022.98 1022.70 1022.50 1022.22 1021.94 1021.66 1021.38 1021.02 1020.66 1020.30 1019.98 1019.70 1019.38 1019.10 1018.86 1018.66 1018.38 1018.10 1017.78 1017.42 1017.10 1016.82 1016.66 1016.42 1016.26 1015.98 1015.70 1015.38
1032.46 1032.38 1032.26 1032.14 1032.02 1031.90 1031.78 1031.58 1031.38 1031.10 1030.82 1030.54 1030.26 1030.06 1029.82 1029.62 1029.38 1029.18 1028.98 1028.70 1028.42 1028.10 1027.82 1027.54 1027.26 1026.98 1026.74 1026.54 1026.38 1026.22 1026.02 1025.82 1025.54 1025.26 1024.98 1024.74 1024.46 1024.10 1023.82 1023.50 1023.22 1022.94 1022.66 1022.38 1022.18 1021.90 1021.58 1021.30 1020.90 1020.54 1020.26 1019.98 1019.70 1019.38 1019.10 1018.82 1018.58 1018.30 1018.02 1017.70 1017.34 1016.98 1016.66 1016.50 1016.34 1016.14 1015.90 1015.62 1015.30
1032.54 1032.42 1032.34 1032.22 1032.10 1031.98 1031.82 1031.54 1031.30 1031.06 1030.78 1030.50 1030.26 1030.06 1029.82 1029.66 1029.46 1029.26 1029.02 1028.78 1028.46 1028.10 1027.82 1027.54 1027.30 1027.02 1026.82 1026.58 1026.42 1026.30 1026.10 1025.86 1025.58 1025.30 1024.98 1024.70 1024.38 1024.10 1023.82 1023.50 1023.22 1022.94 1022.66 1022.38 1022.10 1021.86 1021.54 1021.18 1020.82 1020.54 1020.22 1019.94 1019.66 1019.34 1019.02 1018.74 1018.50 1018.22 1017.90 1017.54 1017.18 1016.86 1016.62 1016.38 1016.26 1016.02 1015.78 1015.54 1015.26
1032.58 1032.50 1032.38 1032.30 1032.18 1032.02 1031.82 1031.54 1031.30 1031.02 1030.74 1030.50 1030.26 1030.10 1029.90 1029.70 1029.54 1029.30 1029.06 1028.74 1028.42 1028.10 1027.82 1027.58 1027.34 1027.10 1026.90 1026.70 1026.54 1026.34 1026.10 1025.82 1025.58 1025.30 1024.98 1024.62 1024.30 1024.02 1023.74 1023.46 1023.18 1022.90 1022.62 1022.34 1022.10 1021.82 1021.50 1021.14 1020.82 1020.50 1020.14 1019.82 1019.58 1019.26 1018.98 1018.66 1018.38 1018.10 1017.74 1017.38 1017.02 1016.78 1016.54 1016.34 1016.18 1015.98 1015.74 1015.46 1015.18
1032.70 1032.54 1032.42 1032.38 1032.22 1032.02 1031.78 1031.54 1031.30 1031.02 1030.74 1030.50 1030.30 1030.10 1029.94 1029.74 1029.54 1029.30 1029.02 1028.70 1028.42 1028.10 1027.82 1027.58 1027.38 1027.18 1026.98 1026.82 1026.58 1026.38 1026.10 1025.82 1025.54 1025.26 1024.90 1024.58 1024.26 1023.98 1023.70 1023.38 1023.14 1022.86 1022.54 1022.26 1021.98 1021.74 1021.42 1021.10 1020.78 1020.46 1020.10 1019.78 1019.46 1019.18 1018.90 1018.58 1018.30 1017.98 1017.58 1017.18 1016.86 1016.66 1016.50 1016.30 1016.10 1015.86 1015.66 1015.42 1015.10
1032.70 1032.58 1032.50 1032.38 1032.22 1032.02 1031.82 1031.54 1031.34 1031.06 1030.78 1030.54 1030.34 1030.18 1029.98 1029.74 1029.54 1029.30 1029.02 1028.74 1028.42 1028.14 1027.82 1027.58 1027.38 1027.22 1027.06 1026.86 1026.62 1026.38 1026.10 1025.82 1025.50 1025.18 1024.82 1024.50 1024.22 1023.94 1023.62 1023.34 1023.06 1022.78 1022.46 1022.18 1021.86 1021.62 1021.34 1021.06 1020.70 1020.38 1020.06 1019.70 1019.34 1019.02 1018.74 1018.46 1018.18 1017.82 1017.42 1017.02 1016.74 1016.58 1016.46 1016.26 1016.10 1015.82 1015.58 1015.34 1015.06
1032.70 1032.58 1032.50 1032.38 1032.22 1032.02 1031.82 1031.58 1031.34 1031.06 1030.78 1030.54 1030.38 1030.22 1030.02 1029.78 1029.54 1029.30 1029.02 1028.70 1028.38 1028.10 1027.82 1027.62 1027.42 1027.26 1027.10 1026.86 1026.62 1026.34 1026.06 1025.74 1025.42 1025.10 1024.78 1024.42 1024.10 1023.82 1023.54 1023.26 1022.98 1022.66 1022.34 1022.06 1021.74 1021.46 1021.22 1020.94 1020.62 1020.26 1019.94 1019.58 1019.26 1018.90 1018.62 1018.34 1018.02 1017.70 1017.26 1016.94 1016.74 1016.62 1016.46 1016.26 1016.02 1015.82 1015.54 1015.30 1015.02
1032.70 1032.62 1032.54 1032.38 1032.18 1032.02 1031.82 1031.62 1031.38 1031.10 1030.86 1030.62 1030.42 1030.26 1030.02 1029.82 1029.54 1029.26 1028.98 1028.66 1028.34 1028.06 1027.82 1027.66 1027.46 1027.26 1027.02 1026.82 1026.54 1026.26 1025.98 1025.70 1025.38 1025.02 1024.70 1024.38 1024.06 1023.78 1023.46 1023.14 1022.82 1022.54 1022.22 1021.86 1021.54 1021.26 1020.98 1020.70 1020.42 1020.10 1019.78 1019.46 1019.10 1018.78 1018.46 1018.18 1017.90 1017.50 1017.10 1016.82 1016.70 1016.62 1016.42 1016.22 1015.98 1015.78 1015.54 1015.30 1015.02
1032.74 1032.62 1032.54 1032.34 1032.18 1032.02 1031.82 1031.66 1031.42 1031.18 1030.94 1030.70 1030.46 1030.26 1030.02 1029.82 1029.54 1029.22 1028.90 1028.62 1028.30 1028.06 1027.86 1027.70 1027.50 1027.26 1026.98 1026.74 1026.54 1026.26 1025.98 1025.62 1025.30 1024.98 1024.70 1024.34 1024.02 1023.70 1023.38 1023.06 1022.74 1022.42 1022.10 1021.74 1021.38 1021.06 1020.74 1020.38 1020.10 1019.82 1019.54 1019.26 1018.94 1018.58 1018.30 1017.98 1017.70 1017.26 1016.98 1016.82 1016.74 1016.62 1016.42 1016.18 1015.98 1015.82 1015.54 1015.30 1015.06
1032.74 1032.58 1032.50 1032.34 1032.14 1031.98 1031.82 1031.66 1031.42 1031.22 1030.98 1030.70 1030.46 1030.26 1029.98 1029.78 1029.50 1029.14 1028.82 1028.58 1028.30 1028.06 1027.82 1027.62 1027.42 1027.18 1026.94 1026.70 1026.46 1026.22 1025.90 1025.54 1025.26 1024.98 1024.66 1024.34 1024.02 1023.70 1023.34 1023.02 1022.66 1022.34 1021.98 1021.66 1021.30 1020.94 1020.54 1020.18 1019.82 1019.46 1019.14 1018.86 1018.58 1018.30 1018.06 1017.78 1017.38 1017.10 1016.86 1016.82 1016.70 1016.54 1016.38 1016.22 1016.02 1015.82 1015.58 1015.34 1015.10
1032.70 1032.54 1032.42 1032.26 1032.10 1031.94 1031.78 1031.58 1031.38 1031.18 1030.94 1030.66 1030.42 1030.18 1029.94 1029.70 1029.38 1029.10 1028.78 1028.54 1028.30 1028.06 1027.82 1027.58 1027.34 1027.10 1026.86 1026.66 1026.38 1026.10 1025.82 1025.54 1025.18 1024.86 1024.58 1024.26 1023.94 1023.62 1023.26 1022.94 1022.58 1022.26 1021.90 1021.54 1021.18 1020.82 1020.42 1020.02 1019.58 1019.14 1018.74 1018.38 1018.10 1017.94 1017.74 1017.46 1017.14 1016.94 1016.82 1016.70 1016.62 1016.50 1016.34 1016.14 1015.98 1015.78 1015.58 1015.38 1015.14
1032.70 1032.54 1032.38 1032.26 1032.10 1031.90 1031.70 1031.54 1031.34 1031.10 1030.82 1030.58 1030.34 1030.10 1029.82 1029.54 1029.26 1028.98 1028.70 1028.46 1028.26 1028.02 1027.82 1027.58 1027.30 1027.02 1026.82 1026.54 1026.30 1026.02 1025.74 1025.42 1025.10 1024.78 1024.46 1024.18 1023.86 1023.54 1023.22 1022.82 1022.50 1022.10 1021.78 1021.38 1021.02 1020.66 1020.26 1019.86 1019.34 1018.78 1018.26 1017.82 1017.66 1017.54 1017.34 1017.10 1016.98 1016.82 1016.74 1016.66 1016.54 1016.38 1016.26 1016.06 1015.90 1015.70 1015.54 1015.38 1015.14
1032.70 1032.54 1032.38 1032.22 1032.02 1031.82 1031.66 1031.46 1031.26 1030.98 1030.78 1030.54 1030.26 1029.98 1029.70 1029.38 1029.18 1028.94 1028.70 1028.42 1028.18 1027.98 1027.74 1027.54 1027.26 1026.98 1026.74 1026.42 1026.14 1025.86 1025.58 1025.30 1025.02 1024.70 1024.38 1024.06 1023.78 1023.46 1023.14 1022.82 1022.38 1022.02 1021.66 1021.26 1020.90 1020.50 1020.10 1019.66 1018.98 1018.30 1017.70 1017.26 1017.10 1017.02 1016.98 1016.86 1016.82 1016.70 1016.62 1016.54 1016.38 1016.26 1016.10 1015.98 1015.78 1015.62 1015.50 1015.30 1015.10
1032.70 1032.54 1032.34 1032.14 1031.98 1031.78 1031.54 1031.34 1031.14 1030.94 1030.70 1030.38 1030.14 1029.86 1029.58 1029.34 1029.10 1028.86 1028.62 1028.38 1028.14 1027.94 1027.70 1027.46 1027.22 1026.94 1026.66 1026.34 1026.06 1025.74 1025.42 1025.18 1024.90 1024.62 1024.30 1023.98 1023.70 1023.38 1023.10 1022.74 1022.38 1021.94 1021.54 1021.10 1020.70 1020.34 1019.90 1019.30 1018.54 1017.82 1017.22 1016.86 1016.74 1016.70 1016.74 1016.70 1016.66 1016.58 1016.50 1016.38 1016.26 1016.14 1016.02 1015.86 1015.70 1015.54 1015.38 1015.22 1014.98
1032.70 1032.54 1032.30 1032.10 1031.90 1031.70 1031.50 1031.30 1031.10 1030.82 1030.58 1030.30 1030.06 1029.82 1029.54 1029.26 1029.06 1028.78 1028.54 1028.30 1028.10 1027.86 1027.66 1027.42 1027.14 1026.86 1026.54 1026.26 1025.94 1025.58 1025.30 1025.02 1024.78 1024.50 1024.22 1023.90 1023.58 1023.26 1022.98 1022.66 1022.26 1021.86 1021.46 1021.06 1020.66 1020.26 1019.82 1019.18 1018.34 1017.62 1017.10 1016.86 1016.78 1016.74 1016.70 1016.70 1016.62 1016.54 1016.38 1016.26 1016.22 1016.10 1015.98 1015.82 1015.66 1015.50 1015.34 1015.18 1014.98
1032.70 1032.50 1032.30 1032.10 1031.90 1031.70 1031.50 1031.26 1031.02 1030.74 1030.50 1030.26 1029.98 1029.70 1029.42 1029.22 1028.98 1028.70 1028.46 1028.26 1028.02 1027.82 1027.58 1027.34 1027.10 1026.78 1026.42 1026.10 1025.78 1025.46 1025.18 1024.94 1024.66 1024.38 1024.06 1023.78 1023.46 1023.18 1022.82 1022.50 1022.14 1021.78 1021.38 1021.06 1020.62 1020.22 1019.78 1019.18 1018.38 1017.66 1017.22 1016.98 1016.90 1016.82 1016.74 1016.62 1016.50 1016.38 1016.26 1016.18 1016.10 1016.02 1015.90 1015.78 1015.58 1015.42 1015.26 1015.10 1014.98
1032.66 1032.46 1032.30 1032.10 1031.86 1031.66 1031.42 1031.26 1030.98 1030.70 1030.46 1030.22 1029.94 1029.66 1029.38 1029.14 1028.90 1028.66 1028.38 1028.10 1027.90 1027.70 1027.46 1027.22 1026.98 1026.66 1026.26 1025.94 1025.62 1025.38 1025.10 1024.90 1024.62 1024.30 1023.98 1023.66 1023.38 1023.10 1022.78 1022.42 1022.10 1021.70 1021.38 1020.98 1020.42 1019.98 1019.54 1019.10 1018.34 1017.70 1017.26 1017.02 1016.94 1016.82 1016.66 1016.54 1016.42 1016.30 1016.18 1016.10 1016.06 1015.98 1015.86 1015.74 1015.54 1015.38 1015.22 1015.10 1014.94
1032.58 1032.38 1032.22 1032.02 1031.82 1031.62 1031.38 1031.22 1030.98 1030.70 1030.42 1030.14 1029.86 1029.58 1029.30 1029.10 1028.82 1028.54 1028.30 1028.06 1027.82 1027.54 1027.38 1027.10 1026.82 1026.50 1026.14 1025.82 1025.54 1025.30 1025.06 1024.82 1024.54 1024.26 1023.94 1023.62 1023.26 1022.98 1022.66 1022.34 1021.98 1021.70 1021.34 1020.98 1020.38 1019.82 1019.34 1018.86 1018.26 1017.66 1017.26 1017.10 1016.94 1016.82 1016.70 1016.54 1016.42 1016.30 1016.18 1016.10 1015.98 1015.98 1015.86 1015.74 1015.58 1015.38 1015.18 1015.06 1014.86
1032.54 1032.34 1032.14 1031.98 1031.74 1031.54 1031.38 1031.14 1030.90 1030.62 1030.34 1030.10 1029.82 1029.54 1029.26 1029.02 1028.74 1028.50 1028.22 1027.98 1027.70 1027.46 1027.22 1026.98 1026.70 1026.38 1026.06 1025.82 1025.54 1025.26 1025.02 1024.78 1024.50 1024.22 1023.90 1023.58 1023.26 1022.94 1022.62 1022.30 1021.98 1021.70 1021.34 1020.86 1020.30 1019.78 1019.30 1018.82 1018.26 1017.74 1017.38 1017.18 1017.06 1016.98 1016.82 1016.66 1016.50 1016.34 1016.18 1016.06 1016.02 1015.98 1015.94 1015.82 1015.66 1015.38 1015.18 1014.98 1014.82
1032.50 1032.26 1032.02 1031.82 1031.66 1031.50 1031.26 1031.06 1030.78 1030.54 1030.26 1030.02 1029.74 1029.50 1029.22 1028.98 1028.70 1028.42 1028.14 1027.86 1027.58 1027.30 1027.06 1026.82 1026.54 1026.34 1026.10 1025.78 1025.54 1025.26 1025.02 1024.74 1024.46 1024.18 1023.86 1023.54 1023.22 1022.86 1022.54 1022.26 1021.98 1021.70 1021.26 1020.78 1020.26 1019.78 1019.30 1018.82 1018.34 1017.86 1017.54 1017.34 1017.22 1017.10 1016.94 1016.74 1016.54 1016.38 1016.22 1016.10 1016.06 1016.06 1015.98 1015.86 1015.70 1015.46 1015.22 1015.02 1014.82
1032.38 1032.14 1031.94 1031.78 1031.54 1031.34 1031.10 1030.94 1030.70 1030.42 1030.18 1029.98 1029.66 1029.38 1029.18 1028.86 1028.62 1028.34 1028.02 1027.78 1027.46 1027.22 1026.98 1026.70 1026.46 1026.26 1026.06 1025.78 1025.54 1025.22 1024.94 1024.66 1024.38 1024.14 1023.82 1023.54 1023.18 1022.82 1022.54 1022.26 1021.98 1021.62 1021.22 1020.70 1020.26 1019.82 1019.38 1018.90 1018.42 1017.98 1017.62 1017.38 1017.34 1017.22 1016.98 1016.82 1016.62 1016.42 1016.26 1016.18 1016.18 1016.14 1016.10 1015.98 1015.78 1015.50 1015.26 1015.06 1014.86
1032.26 1032.10 1031.86 1031.62 1031.42 1031.22 1030.98 1030.78 1030.58 1030.34 1030.10 1029.82 1029.62 1029.38 1029.10 1028.82 1028.58 1028.26 1027.98 1027.70 1027.38 1027.14 1026.90 1026.70 1026.42 1026.22 1026.02 1025.78 1025.54 1025.22 1024.94 1024.66 1024.38 1024.14 1023.82 1023.54 1023.18 1022.82 1022.54 1022.26 1021.98 1021.62 1021.26 1020.78 1020.30 1019.82 1019.38 1018.98 1018.50 1018.10 1017.78 1017.50 1017.42 1017.34 1017.18 1016.98 1016.70 1016.54 1016.38 1016.34 1016.30 1016.26 1016.18 1016.06 1015.82 1015.54 1015.30 1015.10 1014.94
1032.14 1031.98 1031.74 1031.50 1031.26 1031.06 1030.82 1030.66 1030.42 1030.22 1029.98 1029.78 1029.54 1029.30 1029.06 1028.78 1028.50 1028.22 1027.94 1027.70 1027.38 1027.14 1026.90 1026.66 1026.42 1026.18 1025.98 1025.70 1025.46 1025.18 1024.90 1024.62 1024.38 1024.14 1023.82 1023.54 1023.18 1022.86 1022.54 1022.22 1021.98 1021.66 1021.26 1020.82 1020.38 1019.90 1019.42 1018.98 1018.62 1018.22 1017.90 1017.70 1017.58 1017.46 1017.26 1017.02 1016.78 1016.58 1016.50 1016.50 1016.42 1016.38 1016.26 1016.10 1015.82 1015.58 1015.34 1015.18 1014.98
1031.98 1031.78 1031.58 1031.38 1031.10 1030.90 1030.70 1030.54 1030.30 1030.10 1029.90 1029.70 1029.50 1029.26 1028.98 1028.74 1028.46 1028.22 1027.98 1027.74 1027.46 1027.14 1026.90 1026.66 1026.38 1026.10 1025.86 1025.62 1025.38 1025.10 1024.90 1024.62 1024.38 1024.14 1023.82 1023.54 1023.26 1022.94 1022.58 1022.26 1021.98 1021.70 1021.34 1020.94 1020.46 1019.98 1019.54 1019.10 1018.74 1018.38 1018.06 1017.86 1017.70 1017.58 1017.38 1017.10 1016.82 1016.70 1016.66 1016.62 1016.54 1016.42 1016.26 1016.10 1015.86 1015.66 1015.42 1015.22 1014.98
1031.82 1031.62 1031.42 1031.22 1030.98 1030.78 1030.58 1030.38 1030.22 1030.02 1029.82 1029.58 1029.38 1029.14 1028.94 1028.70 1028.42 1028.18 1027.98 1027.70 1027.46 1027.22 1026.94 1026.70 1026.38 1026.10 1025.86 1025.58 1025.34 1025.10 1024.82 1024.58 1024.38 1024.10 1023.82 1023.54 1023.26 1022.90 1022.58 1022.30 1022.02 1021.74 1021.38 1020.98 1020.62 1020.14 1019.70 1019.26 1018.94 1018.58 1018.26 1018.06 1017.86 1017.70 1017.50 1017.22 1016.94 1016.82 1016.82 1016.78 1016.66 1016.54 1016.34 1016.10 1015.98 1015.78 1015.54 1015.26 1015.06
1031.66 1031.46 1031.26 1031.10 1030.90 1030.70 1030.46 1030.30 1030.10 1029.90 1029.70 1029.50 1029.26 1029.06 1028.82 1028.62 1028.38 1028.10 1027.90 1027.70 1027.50 1027.26 1026.98 1026.74 1026.46 1026.18 1025.90 1025.66 1025.42 1025.14 1024.86 1024.62 1024.38 1024.10 1023.82 1023.50 1023.22 1022.90 1022.62 1022.38 1022.10 1021.82 1021.46 1021.10 1020.74 1020.34 1019.90 1019.46 1019.10 1018.82 1018.54 1018.26 1018.02 1017.82 1017.62 1017.34 1017.06 1016.94 1016.94 1016.86 1016.78 1016.58 1016.38 1016.18 1016.02 1015.86 1015.66 1015.34 1015.18
1031.54 1031.34 1031.14 1030.98 1030.82 1030.58 1030.38 1030.18 1029.98 1029.78 1029.54 1029.38 1029.14 1028.94 1028.74 1028.54 1028.30 1028.06 1027.86 1027.70 1027.50 1027.26 1027.02 1026.82 1026.54 1026.26 1025.98 1025.70 1025.46 1025.22 1024.94 1024.66 1024.34 1024.10 1023.82 1023.50 1023.22 1022.90 1022.66 1022.38 1022.14 1021.86 1021.54 1021.18 1020.86 1020.50 1020.06 1019.62 1019.30 1019.02 1018.74 1018.46 1018.22 1017.98 1017.74 1017.50 1017.26 1017.10 1017.02 1016.98 1016.90 1016.70 1016.46 1016.22 1016.02 1015.94 1015.78 1015.54 1015.34
1031.46 1031.26 1031.10 1030.90 1030.70 1030.50 1030.26 1030.10 1029.86 1029.66 1029.46 1029.26 1029.06 1028.82 1028.62 1028.38 1028.22 1028.02 1027.82 1027.66 1027.42 1027.26 1027.02 1026.78 1026.54 1026.26 1025.98 1025.70 1025.46 1025.22 1024.98 1024.70 1024.34 1024.02 1023.74 1023.46 1023.18 1022.94 1022.66 1022.38 1022.14 1021.90 1021.62 1021.30 1020.98 1020.58 1020.18 1019.78 1019.42 1019.14 1018.90 1018.62 1018.38 1018.10 1017.90 1017.66 1017.42 1017.26 1017.10 1017.10 1017.02 1016.86 1016.62 1016.34 1016.10 1015.98 1015.90 1015.74 1015.54
1031.46 1031.26 1031.06 1030.82 1030.62 1030.42 1030.22 1030.02 1029.82 1029.62 1029.38 1029.22 1028.98 1028.82 1028.58 1028.34 1028.14 1027.98 1027.78 1027.58 1027.38 1027.18 1026.98 1026.74 1026.54 1026.26 1025.98 1025.74 1025.46 1025.26 1024.98 1024.74 1024.38 1024.02 1023.70 1023.42 1023.18 1022.94 1022.66 1022.38 1022.18 1021.98 1021.70 1021.38 1021.02 1020.66 1020.26 1019.90 1019.54 1019.26 1018.98 1018.74 1018.50 1018.26 1018.10 1017.82 1017.66 1017.46 1017.26 1017.18 1017.10 1016.98 1016.82 1016.54 1016.30 1016.18 1016.10 1015.98 1015.66
1031.42 1031.26 1031.06 1030.82 1030.62 1030.38 1030.22 1030.02 1029.82 1029.58 1029.38 1029.18 1028.98 1028.78 1028.54 1028.34 1028.10 1027.90 1027.70 1027.54 1027.34 1027.10 1026.90 1026.66 1026.42 1026.22 1025.98 1025.74 1025.46 1025.22 1024.98 1024.74 1024.42 1024.06 1023.70 1023.42 1023.18 1022.94 1022.66 1022.42 1022.22 1022.02 1021.78 1021.46 1021.10 1020.74 1020.38 1020.06 1019.70 1019.34 1019.06 1018.86 1018.62 1018.42 1018.26 1018.02 1017.86 1017.70 1017.46 1017.30 1017.18 1017.06 1016.90 1016.74 1016.54 1016.42 1016.34 1016.18 1015.74
1031.46 1031.26 1031.06 1030.86 1030.66 1030.42 1030.26 1029.98 1029.82 1029.62 1029.38 1029.14 1028.94 1028.74 1028.54 1028.30 1028.06 1027.86 1027.70 1027.50 1027.30 1027.10 1026.82 1026.58 1026.38 1026.14 1025.98 1025.70 1025.46 1025.18 1024.94 1024.70 1024.42 1024.10 1023.78 1023.46 1023.14 1022.90 1022.66 1022.46 1022.26 1022.02 1021.82 1021.50 1021.18 1020.82 1020.54 1020.18 1019.82 1019.46 1019.18 1018.98 1018.74 1018.54 1018.38 1018.18 1018.02 1017.90 1017.70 1017.46 1017.26 1017.10 1016.98 1016.86 1016.74 1016.66 1016.58 1016.38 1015.98
1031.50 1031.26 1031.10 1030.90 1030.70 1030.46 1030.26 1030.02 1029.82 1029.62 1029.38 1029.18 1028.94 1028.70 1028.50 1028.26 1028.02 1027.82 1027.66 1027.46 1027.26 1027.02 1026.82 1026.54 1026.30 1026.10 1025.90 1025.70 1025.42 1025.14 1024.90 1024.66 1024.38 1024.14 1023.82 1023.50 1023.22 1022.90 1022.66 1022.42 1022.26 1022.06 1021.82 1021.54 1021.26 1020.98 1020.66 1020.30 1019.98 1019.58 1019.30 1019.14 1018.90 1018.70 1018.54 1018.38 1018.26 1018.10 1017.94 1017.74 1017.50 1017.26 1017.10 1017.02 1016.90 1016.82 1016.70 1016.58 1016.34
1031.54 1031.34 1031.10 1030.90 1030.70 1030.46 1030.26 1029.98 1029.78 1029.58 1029.38 1029.14 1028.94 1028.70 1028.50 1028.26 1027.98 1027.78 1027.58 1027.38 1027.18 1026.98 1026.78 1026.54 1026.26 1026.06 1025.82 1025.66 1025.38 1025.14 1024.86 1024.62 1024.38 1024.10 1023.86 1023.54 1023.26 1022.94 1022.62 1022.42 1022.26 1022.10 1021.86 1021.66 1021.38 1021.10 1020.78 1020.42 1020.10 1019.74 1019.46 1019.26 1019.06 1018.90 1018.74 1018.58 1018.46 1018.34 1018.22 1018.06 1017.82 1017.62 1017.42 1017.26 1017.10 1016.98 1016.86 1016.82 1016.70
Wind_Speed
13 12 11 11 10 10 9 9 10 10 10 10 11 11 11 11 11 10 10 10 10 10 10 11 11 12 14 17 18 18 18 18 19 19 19 18 18 18 18 18 18 18 18 18 18 17 15 14 13 11 10 10 10 11 11 10 12 13 12 12 10 11 11 12 12 13 14 13 11
13 13 12 12 11 10 9 9 10 10 10 10 10 11 11 10 10 10 10 11 10 11 11 11 12 14 16 18 18 18 18 18 19 19 19 18 18 18 18 17 18 18 18 18 18 16 14 14 13 11 10 10 10 11 11 11 12 12 13 14 11 10 10 11 11 12 13 12 11
13 13 12 12 12 11 10 9 10 12 12 11 11 10 10 10 10 10 10 11 12 12 12 11 12 15 17 18 17 17 17 18 19 19 18 17 17 18 18 17 18 19 19 18 17 15 15 15 13 11 10 10 11 11 11 11 12 12 12 13 10 9 9 9 10 11 10 9 10
13 13 12 12 14 14 12 10 12 13 13 11 11 11 10 10 10 10 11 12 13 13 12 12 13 14 15 16 17 18 18 19 19 19 18 17 17 18 18 18 18 19 18 18 17 17 17 16 13 11 10 11 12 12 11 10 11 11 10 10 9 9 9 9 10 9 9 8 9
13 13 12 12 14 14 12 12 13 13 12 11 10 10 10 9 10 10 11 12 12 12 13 15 14 14 14 16 18 19 19 20 19 18 17 17 17 17 18 18 18 18 17 17 17 18 18 17 12 10 10 11 10 10 11 12 12 11 10 9 9 9 9 9 9 9 9 8 9
13 13 13 12 14 13 12 12 14 14 13 11 12 12 11 10 10 11 12 12 13 14 16 16 15 15 16 17 18 19 18 18 17 17 17 18 17 17 18 19 19 18 17 17 18 18 18 16 12 10 10 10 10 11 12 13 12 11 11 10 10 9 9 9 9 9 9 11 12
13 13 13 13 14 13 13 13 13 13 13 11 13 14 14 13 14 15 15 14 13 14 14 14 14 15 16 17 18 18 17 17 17 17 18 17 17 18 18 18 18 18 17 17 17 17 16 15 12 10 10 10 9 11 12 13 12 12 12 12 10 10 9 10 9 9 11 14 16
13 13 13 13 13 14 14 15 14 13 12 11 13 15 16 16 17 17 16 15 13 13 13 13 15 17 18 18 18 17 17 18 17 17 17 16 18 18 18 18 18 18 17 17 17 17 16 14 11 10 10 9 9 10 13 15 15 14 14 13 12 10 9 9 9 9 12 15 17
12 13 13 13 13 14 14 15 15 14 14 13 14 15 16 16 17 16 15 14 13 14 14 14 16 18 19 19 18 17 17 16 17 17 17 17 18 18 18 17 17 17 17 16 17 17 17 13 11 10 10 10 10 12 14 16 16 16 15 13 12 11 11 10 11 12 13 15 16
13 13 13 13 14 14 15 15 15 15 15 14 15 16 16 16 16 15 14 13 14 15 15 15 17 18 18 18 17 17 16 16 16 17 17 17 18 18 18 16 17 17 17 16 16 16 16 13 12 12 12 12 14 15 17 17 17 16 15 12 12 13 14 13 13 13 13 13 15
13 13 13 13 14 14 15 15 14 14 14 14 15 15 15 15 15 15 14 14 15 16 17 17 17 17 17 16 16 16 16 15 15 16 17 18 18 18 18 17 17 17 17 17 16 14 13 12 13 15 16 15 16 16 16 17 17 17 17 14 14 15 15 15 14 13 13 13 15
13 13 13 13 14 14 14 14 13 13 13 14 14 15 15 14 15 15 16 16 16 17 16 16 17 17 16 14 15 15 16 16 16 17 17 17 18 18 18 18 18 18 18 18 16 14 12 13 14 16 18 18 15 14 15 17 17 18 18 17 16 15 14 14 14 13 12 12 14
13 13 13 13 14 14 14 14 12 12 13 14 14 14 14 14 15 16 16 16 16 16 15 15 16 15 15 15 15 15 15 16 17 17 17 17 17 17 17 17 18 18 18 17 16 14 14 14 16 17 18 19 16 15 16 18 18 18 17 17 15 14 14 14 14 13 13 13 14
13 13 13 14 14 14 13 13 12 12 13 14 14 14 14 14 14 15 15 15 16 15 15 15 14 14 14 15 15 16 16 16 17 17 17 17 17 17 17 17 18 18 17 16 16 16 16 16 17 17 18 19 18 18 18 19 18 18 17 16 15 14 13 13 13 13 13 14 14
13 13 13 14 14 13 13 13 12 12 13 14 14 14 13 13 13 14 14 15 16 15 14 14 13 14 15 16 16 17 17 17 17 17 17 17 17 17 17 17 18 18 17 17 16 16 16 17 17 17 17 18 19 19 19 19 19 18 16 14 13 13 13 13 13 12 13 13 14
13 13 13 13 14 13 13 12 11 11 12 13 14 14 13 13 13 13 14 15 15 14 14 15 14 14 14 15 16 16 16 16 16 17 17 17 17 18 18 18 18 18 18 18 17 17 16 17 16 17 17 18 18 19 19 19 19 17 15 12 12 11 12 12 12 12 12 13 13
13 13 13 13 14 14 14 13 12 12 13 14 14 14 13 13 12 13 14 15 14 14 15 16 15 14 14 14 14 14 14 15 15 15 16 16 17 18 18 18 18 18 18 18 18 18 18 18 17 17 17 17 17 18 18 19 18 15 12 11 10 11 11 12 12 12 12 13 13
13 13 13 14 14 14 15 14 14 14 14 15 15 14 13 13 13 14 14 15 15 16 17 17 16 15 14 15 14 13 13 14 14 15 16 16 17 18 18 18 18 18 18 18 18 18 19 20 20 19 18 17 17 17 17 17 15 12 10 9 10 10 11 11 12 12 12 12 13
13 13 14 14 14 14 15 15 15 15 15 15 14 14 14 14 15 15 14 15 16 16 17 17 16 15 15 15 15 14 13 13 15 16 16 17 17 17 18 18 18 18 18 18 18 18 19 20 20 20 20 19 18 17 16 15 12 9 8 8 9 9 10 11 11 11 11 12 13
14 14 14 14 14 14 14 15 15 15 15 14 15 15 15 15 15 15 15 15 16 16 16 16 16 16 16 16 16 15 14 13 14 15 16 16 17 17 18 18 18 18 18 18 17 18 19 19 21 22 22 21 19 17 15 12 9 7 7 7 7 8 9 10 11 11 12 12 13
14 14 14 14 14 14 14 14 14 15 15 15 15 15 15 15 15 15 16 16 16 16 16 16 16 16 16 16 16 15 14 12 13 14 15 16 17 17 17 18 18 18 17 17 17 18 19 20 22 23 22 20 17 13 10 7 6 6 7 6 6 7 8 9 10 10 11 12 12
14 14 14 14 14 14 15 15 15 15 15 15 15 15 15 15 15 15 16 16 16 16 16 16 16 16 16 16 16 15 14 13 13 14 14 15 15 16 16 16 17 17 17 17 17 17 19 21 22 21 19 14 10 7 5 4 5 6 6 7 7 7 8 9 9 9 10 11 12
14 14 14 14 14 15 15 15 15 15 15 15 15 15 15 15 15 16 16 15 15 15 16 15 15 16 16 16 15 15 14 14 14 14 15 15 15 16 16 16 16 17 16 15 15 16 18 19 19 17 12 8 5 3 3 4 5 5 6 6 6 7 7 8 8 9 9 10 10
15 14 14 13 14 15 15 15 15 16 16 15 15 15 15 15 15 15 15 15 15 15 15 14 14 15 15 15 15 15 15 15 15 16 16 16 16 16 16 16 15 15 14 13 15 18 20 20 17 13 8 6 4 3 4 5 5 5 5 5 5 6 7 8 9 9 9 10 9
15 15 14 14 15 15 15 15 16 16 16 16 16 16 15 15 15 15 15 16 15 15 15 15 15 14 14 14 14 14 14 15 15 16 16 16 16 16 16 14 14 13 13 14 21 26 27 27 22 15 8 6 6 6 7 7 8 7 6 5 5 6 7 9 10 10 9 9 9
15 15 15 15 15 15 15 16 16 16 16 16 16 16 16 15 15 15 16 16 16 15 15 15 14 14 14 13 14 14 15 14 14 15 15 15 16 17 16 14 13 12 12 16 24 29 31 32 30 22 13 8 8 8 8 8 9 9 8 7 7 7 8 10 11 11 10 9 8
15 15 15 15 15 15 15 16 16 16 16 17 17 16 16 16 15 15 16 16 15 15 14 13 13 13 13 13 14 15 15 15 14 15 15 15 16 17 16 15 12 11 13 20 27 30 31 32 32 28 20 12 9 8 8 8 9 9 8 7 7 8 9 10 11 12 11 9 8
15 15 15 16 15 15 15 16 16 16 17 17 17 16 16 16 17 16 16 16 16 15 13 12 12 11 11 11 13 15 16 16 15 14 14 15 16 17 17 15 13 14 17 24 28 30 31 32 31 30 25 18 11 8 8 8 8 8 7 7 8 9 10 10 10 11 11 10 8
16 16 16 16 16 15 16 16 16 16 17 17 17 17 17 17 17 17 17 16 16 15 13 11 11 10 11 12 14 15 15 16 15 14 14 16 17 17 17 16 16 17 21 27 29 30 31 31 31 30 28 24 14 9 7 7 7 7 7 7 8 9 9 9 10 10 10 9 8
14 15 15 15 16 16 16 16 16 16 16 15 16 17 17 17 17 17 17 17 16 15 13 12 12 12 13 14 14 14 14 14 14 14 15 16 17 17 17 17 16 17 20 26 29 30 31 31 31 31 29 27 18 12 8 8 7 7 7 7 8 9 10 10 11 11 10 9 8
13 14 15 15 16 16 16 16 16 16 16 15 16 17 17 17 17 17 17 16 16 15 15 15 15 15 15 15 15 15 15 15 15 15 15 16 16 17 17 18 18 18 20 26 28 30 31 31 31 31 30 29 20 13 10 9 8 8 8 8 9 10 10 9 10 11 11 9 8
13 14 15 15 16 16 16 16 16 16 16 16 17 17 17 17 17 16 16 16 16 16 16 16 16 16 16 16 15 15 16 15 15 15 15 16 16 17 17 17 17 18 20 25 28 29 30 31 31 31 30 29 21 15 12 10 8 8 8 9 10 10 10 9 9 10 11 9 8
14 14 15 15 16 16 16 16 16 16 16 16 16 16 16 16 16 16 15 15 15 15 16 16 16 16 16 16 16 16 16 16 16 16 16 16 16 16 16 16 14 16 20 25 27 28 29 30 30 30 30 28 20 16 13 11 8 8 8 9 10 11 11 11 10 10 10 9 7
14 15 15 15 16 16 16 16 16 16 16 16 16 16 16 16 16 16 15 15 14 14 15 15 15 15 15 15 15 16 16 15 15 16 16 16 16 16 16 14 12 15 20 24 26 27 28 29 29 29 29 26 19 15 13 12 9 8 9 9 10 11 12 11 10 9 8 8 8
15 15 16 16 16 16 16 16 16 16 16 16 16 16 16 16 16 15 15 15 15 15 15 15 15 15 15 15 15 15 16 16 16 16 16 16 16 16 16 15 14 17 21 24 24 25 26 27 28 28 26 22 16 13 12 12 10 9 10 10 10 12 12 12 10 8 8 7 9
16 16 16 17 16 16 16 16 16 16 16 16 16 16 16 16 15 15 15 15 15 15 15 15 15 15 15 15 15 15 16 16 17 16 16 15 15 15 15 15 15 17 20 22 23 24 25 26 26 26 24 18 14 12 12 10 10 10 10 10 10 11 12 12 11 9 8 7 9
16 17 17 17 17 17 17 16 16 16 17 16 16 16 16 16 15 14 14 14 14 14 15 15 15 15 15 15 15 15 15 16 17 16 16 15 15 15 15 14 15 16 18 20 22 23 24 25 25 25 22 16 13 12 11 9 9 9 10 9 9 10 10 10 11 10 9 9 11
17 17 17 17 17 16 16 16 16 16 16 16 16 16 15 15 14 14 14 13 13 14 15 15 15 15 15 16 15 16 16 16 17 16 16 15 15 14 14 14 14 14 16 19 20 22 23 24 25 24 22 16 14 11 9 8 9 10 10 9 8 9 9 8 8 8 9 12 16
17 17 17 16 16 16 16 16 16 16 16 16 16 16 15 15 13 13 13 13 13 14 14 15 15 15 15 16 15 15 16 16 16 16 16 15 15 15 14 13 13 13 14 17 20 21 22 23 24 24 22 17 14 11 8 8 9 10 10 10 9 9 9 8 7 6 7 11 18
17 16 16 16 16 16 16 16 16 15 15 15 15 15 15 15 14 14 13 13 13 13 14 14 15 15 15 15 15 15 15 16 16 16 16 16 15 15 14 12 12 13 14 17 19 20 21 22 23 24 22 16 13 10 8 8 9 10 11 10 9 9 9 9 7 6 5 8 14
16 16 16 16 16 16 16 16 15 15 15 15 15 15 14 14 14 14 13 13 13 13 13 12 14 15 15 15 14 14 15 15 16 16 16 16 15 14 13 11 11 12 13 15 18 19 20 21 22 23 22 17 13 9 7 8 9 10 11 11 10 10 9 10 8 6 6 8 10
Wind_Direction
340 340 339 337 336 335 333 331 331 332 332 331 328 325 323 321 320 321 323 325 325 324 323 320 320 320 321 323 323 323 323 324 324 324 323 323 321 321 320 320 321 322 322 322 321 319 318 319 320 318 315 312 309 307 306 304 303 302 301 301 303 304 304 302 299 297 296 295 294
341 340 339 337 337 336 333 331 333 333 333 331 326 324 322 321 322 323 325 326 325 323 321 318 319 320 321 322 322 323 323 324 324 324 324 323 323 323 323 322 322 322 322 321 320 319 319 321 320 318 314 311 308 307 306 305 303 302 301 303 305 306 305 302 299 298 297 296 296
341 340 339 338 339 338 336 334 334 333 331 328 325 323 322 323 323 324 324 325 323 321 319 318 319 320 320 321 322 323 324 324 324 324 324 324 324 325 324 323 322 321 321 320 320 320 319 321 319 316 312 310 309 306 304 303 302 302 302 306 307 307 306 302 301 300 299 297 299
340 340 339 338 338 338 337 335 333 331 329 325 323 322 322 323 323 322 322 321 320 319 318 319 318 319 320 321 322 323 323 323 324 323 324 324 325 325 324 322 321 320 320 320 320 319 319 319 316 313 310 308 306 304 302 302 303 303 304 307 308 307 305 302 302 301 300 299 301
339 339 339 338 338 337 336 334 332 330 327 324 322 322 322 322 321 321 320 320 319 319 319 319 318 318 319 321 322 323 323 323 324 324 324 324 324 324 323 322 320 320 319 319 320 319 318 318 314 311 309 307 304 302 302 302 303 304 306 307 307 305 302 300 301 301 301 300 301
338 337 337 337 337 336 335 334 331 328 325 323 322 321 322 322 322 322 322 320 318 318 318 318 318 319 320 322 322 323 323 324 324 324 323 323 323 322 321 320 319 319 319 319 319 318 317 317 313 310 307 305 302 302 303 306 307 308 308 307 304 301 299 299 300 301 302 301 302
336 336 336 336 336 336 334 333 330 327 324 321 321 321 321 321 322 322 321 320 319 318 319 318 320 321 322 323 323 323 324 324 323 322 322 322 321 321 320 319 319 319 319 319 318 318 317 316 312 308 306 306 305 306 309 310 311 310 309 306 302 299 297 298 300 301 302 302 304
334 335 336 335 335 334 333 332 329 326 323 321 321 321 321 322 322 323 322 321 320 319 319 318 320 321 322 323 323 324 323 323 322 321 321 320 320 319 318 318 318 319 319 319 318 317 316 314 310 307 306 306 307 309 311 312 311 309 306 303 300 298 297 299 301 302 302 303 304
335 335 335 335 335 334 333 330 327 325 323 321 321 321 322 323 324 324 323 322 320 319 318 318 320 322 322 323 324 324 323 322 321 320 320 319 318 318 318 318 319 319 319 319 317 316 315 312 308 306 307 309 310 311 311 312 310 307 304 300 298 298 300 301 303 303 303 303 304
335 335 335 334 335 333 331 329 326 324 322 321 322 323 324 325 325 324 323 321 319 318 319 320 321 322 323 324 324 324 323 321 320 319 319 318 317 317 317 318 319 319 319 318 317 316 313 310 307 308 309 310 311 311 310 310 309 306 303 298 298 300 303 305 305 305 304 303 304
335 335 335 334 334 332 330 328 326 324 323 322 324 325 326 326 325 324 322 320 319 319 320 321 322 323 324 324 324 323 322 320 319 318 317 316 316 317 317 318 318 318 317 317 316 314 312 309 308 309 310 311 311 310 310 310 308 305 301 297 298 301 305 308 308 307 305 304 304
334 334 334 333 332 330 329 328 326 324 323 324 326 327 327 326 325 323 322 321 320 320 321 322 323 324 324 324 323 322 320 319 318 317 316 315 316 316 317 318 318 317 316 315 315 313 311 310 310 310 310 310 310 309 309 309 307 303 299 296 299 304 307 309 309 307 306 305 304
333 333 333 332 331 330 328 328 325 324 324 325 327 327 327 325 324 323 322 321 321 321 321 322 323 324 324 323 321 320 319 318 317 316 315 315 316 317 318 318 317 316 315 314 314 312 311 310 310 309 309 309 308 308 308 308 306 301 298 297 302 307 309 309 308 307 306 306 306
332 332 332 331 330 329 328 327 325 324 324 326 327 327 326 324 323 323 322 321 321 321 321 322 324 324 323 321 319 319 318 318 317 316 315 316 317 318 318 317 316 315 314 313 312 311 310 309 309 308 307 306 306 306 307 307 304 300 297 299 306 310 311 309 308 308 308 308 308
331 331 331 330 329 328 327 327 324 324 324 325 326 326 325 323 322 321 320 319 320 321 322 324 323 322 321 319 319 319 318 317 317 317 317 317 318 318 318 317 316 315 313 312 311 310 309 308 307 306 305 304 304 304 305 305 301 297 296 302 309 311 311 309 309 310 310 311 311
330 330 330 329 329 328 327 326 324 323 323 323 324 324 323 321 320 319 319 319 320 321 323 323 322 320 319 319 319 319 319 317 317 318 318 319 319 319 318 317 316 314 313 312 311 310 308 307 305 303 301 300 300 301 301 301 296 294 296 305 311 312 310 310 311 313 314 314 314
328 329 329 328 327 327 326 325 324 322 321 321 321 321 321 320 318 317 318 320 321 323 323 323 321 319 319 319 320 319 318 318 318 318 319 319 319 318 317 317 315 314 313 312 311 310 309 307 304 301 298 296 295 296 297 295 291 292 299 311 313 312 311 313 315 316 316 316 316
327 327 327 326 326 325 324 324 322 321 319 319 319 319 318 318 316 316 318 320 322 323 323 322 320 319 318 319 319 319 318 318 318 318 318 318 317 317 316 316 316 315 314 312 311 309 308 306 303 300 296 292 291 292 292 289 288 292 302 311 312 312 313 315 317 317 317 318 317
325 326 325 325 324 323 322 321 320 319 318 317 317 317 316 315 315 316 318 321 322 323 323 322 320 319 318 318 318 317 317 317 317 317 317 317 316 316 316 317 316 315 314 312 310 308 306 304 301 297 293 289 288 288 286 284 286 292 302 307 309 311 313 314 316 317 318 319 317
323 324 323 323 322 321 320 319 318 317 317 316 316 315 315 315 316 318 319 320 322 323 323 322 320 319 317 317 316 316 316 315 317 317 317 317 317 317 317 318 317 316 314 312 310 307 304 301 297 294 291 288 286 284 281 279 283 289 296 302 305 308 309 311 315 318 319 319 317
322 322 321 320 320 319 318 317 317 316 316 315 315 315 315 316 317 318 319 320 321 322 323 322 320 319 317 315 314 314 314 315 316 317 317 316 317 317 318 318 317 315 313 312 310 307 305 301 297 294 292 290 286 280 275 273 279 286 292 300 304 306 307 309 314 318 320 320 318
320 320 319 318 318 317 317 317 317 316 316 315 316 316 316 317 318 318 319 320 321 322 322 322 320 318 316 314 313 313 314 315 317 317 317 317 318 318 319 318 317 315 314 313 311 309 307 305 303 302 301 301 296 285 271 269 277 285 293 301 305 307 309 312 315 318 320 320 320
318 317 317 316 316 316 316 317 317 316 316 316 316 316 317 317 317 318 319 320 321 322 322 321 319 317 314 312 311 312 314 316 318 318 319 319 319 319 319 318 317 316 316 314 313 311 312 314 316 318 322 333 333 315 280 272 278 286 296 304 308 312 314 317 319 321 322 323 324
316 316 315 315 315 316 316 316 316 316 316 316 316 316 317 317 317 318 318 319 319 320 321 319 317 315 313 311 312 314 316 318 319 320 320 320 320 320 320 319 319 319 318 316 315 316 321 330 335 338 344 358 351 328 307 298 303 307 311 314 317 320 323 325 324 325 326 327 328
314 314 314 313 314 315 315 316 315 315 315 314 315 316 316 317 318 318 318 318 319 319 319 318 316 314 313 313 315 317 319 320 320 320 320 320 321 321 322 321 321 321 320 317 317 319 325 338 347 351 352 354 345 337 332 329 330 330 330 331 334 336 335 333 331 329 329 328 327
313 313 313 313 313 314 314 314 314 314 314 314 315 315 316 317 317 317 317 317 318 318 318 318 317 317 317 318 319 321 321 320 320 320 320 320 321 322 323 324 324 323 320 319 321 324 329 340 351 357 0 358 351 345 340 336 335 335 336 340 346 347 345 340 335 332 330 327 326
312 312 312 312 312 313 313 313 313 313 314 314 315 316 316 317 317 317 317 316 317 317 318 318 318 319 320 320 321 322 321 321 320 320 320 320 321 323 325 325 326 323 321 322 325 328 333 342 353 0 5 6 358 349 341 337 336 336 338 345 354 354 350 343 335 331 328 325 327
311 310 311 311 312 312 312 312 313 314 315 315 316 316 316 317 317 316 316 316 317 318 318 319 321 321 322 322 322 322 321 321 321 322 322 321 322 324 326 327 326 325 325 327 329 332 336 342 352 0 6 9 3 351 342 337 336 338 343 352 359 358 352 344 334 329 327 325 330
308 309 310 311 311 312 313 314 314 315 315 315 316 316 317 317 317 316 316 316 317 319 320 321 322 322 322 322 321 320 321 322 323 323 323 323 323 325 326 327 326 326 327 329 332 334 338 343 350 358 4 8 4 355 345 341 340 343 350 358 1 357 351 341 332 328 327 327 334
305 307 308 310 311 313 314 315 315 316 316 316 317 317 317 317 316 316 317 317 318 319 320 320 321 321 321 321 320 321 322 323 324 324 324 323 324 325 326 327 327 327 328 331 333 336 339 344 350 356 1 5 2 355 345 342 344 350 357 3 0 354 346 336 330 328 329 331 339
304 306 308 311 313 314 315 316 316 317 317 317 318 318 318 318 317 318 318 319 319 319 319 319 319 320 320 320 320 321 322 324 324 324 324 323 324 325 326 327 327 327 328 332 335 337 340 344 349 355 359 2 359 353 345 342 349 357 2 4 358 351 342 332 330 331 333 337 344
306 309 311 313 314 315 316 317 318 318 318 318 318 318 318 318 318 319 319 320 319 319 319 319 319 320 320 320 321 322 323 324 324 324 324 324 324 325 326 327 328 328 329 333 336 338 341 343 348 353 357 359 356 350 344 342 352 2 6 3 355 347 339 333 333 336 339 341 350
311 313 314 315 316 317 317 319 319 319 319 319 319 319 319 319 319 320 320 320 320 319 319 319 319 319 319 320 321 322 322 322 323 323 323 323 324 325 327 328 327 328 330 334 337 339 340 342 347 352 355 356 353 349 345 343 355 5 8 2 353 344 338 335 338 341 343 345 358
316 317 318 318 318 318 319 320 320 320 320 320 320 321 321 321 321 321 321 321 320 320 319 318 318 317 318 319 320 321 321 321 322 323 323 323 324 326 328 330 327 328 331 334 337 339 340 341 346 351 354 354 351 348 345 346 356 7 9 2 352 344 339 338 342 345 347 354 11
321 321 321 321 320 320 321 321 321 322 322 322 323 323 323 322 321 321 321 321 320 319 318 317 317 316 316 318 319 319 319 320 320 321 322 323 325 327 329 330 328 330 332 335 337 338 339 340 345 350 353 353 350 347 346 348 356 4 7 3 353 346 341 339 344 348 354 5 24
325 324 323 322 322 323 323 324 324 324 325 325 325 325 324 323 322 321 321 321 321 320 319 318 317 317 317 318 318 318 318 319 319 320 321 323 325 327 329 330 330 331 333 335 337 338 339 340 344 349 353 352 349 348 348 350 354 359 2 3 355 348 343 341 345 351 2 16 36
327 326 325 324 324 325 325 326 326 327 327 327 326 325 324 323 322 322 322 322 321 320 319 318 318 317 317 318 317 317 317 317 318 319 321 323 325 327 329 331 331 332 333 335 337 338 340 341 345 349 352 351 349 348 349 352 353 354 356 360 355 349 345 342 346 352 5 23 43
328 327 326 326 326 327 327 328 328 328 328 327 326 325 325 324 323 323 323 324 322 321 320 319 318 318 317 317 316 316 316 317 318 320 321 323 325 327 329 331 332 332 333 336 338 340 341 343 346 349 352 351 349 349 351 356 357 355 353 355 352 350 348 346 347 353 8 26 42
328 328 328 327 328 328 328 328 328 328 327 327 326 325 325 325 324 324 324 324 323 322 320 319 319 318 318 317 316 316 317 318 319 321 322 324 326 328 330 333 333 334 335 339 341 342 343 345 347 351 353 351 349 349 354 2 2 359 355 353 351 351 350 350 348 351 6 23 37
329 329 329 329 329 329 328 328 328 327 326 326 326 325 325 325 325 325 325 324 324 323 322 320 320 319 319 319 317 317 318 319 321 323 324 325 325 328 331 334 335 337 339 343 344 345 345 347 349 352 354 352 350 351 358 8 7 5 0 355 355 355 355 353 350 351 4 20 32
329 330 330 330 329 329 328 327 326 326 325 325 325 324 324 325 325 326 326 327 327 326 325 322 321 321 320 320 319 318 319 320 322 324 326 326 325 326 330 336 339 342 344 347 347 346 346 349 352 354 355 355 355 358 5 12 13 10 6 1 1 2 1 357 354 0 16 28 30